Lapse_Rate
6.7 6.9 6.6 6.2 6.2 6.2 6.4 6.4 6.3 6.1 5.9 5.8 5.5 5.9 5.8 5.6 5.3 5.3 5.7 6.1 6.1 5.9 5.4 5.4 5.5 5.6 5.4 5.4 5.5 5.8 5.6 6.0 6.4 6.3 6.5 6.4 6.3 6.1 6.1 6.1 6.0 5.8 5.9 6.0 5.9
6.3 6.5 6.5 6.4 6.6 6.3 6.2 6.4 6.3 6.3 5.9 5.7 5.7 5.5 5.9 5.8 5.3 5.1 5.9 6.4 6.1 5.9 5.7 5.5 5.5 5.6 5.4 5.4 5.3 5.4 5.7 6.2 6.1 6.0 5.9 6.4 6.2 6.1 5.8 6.0 6.1 6.0 6.1 6.1 5.9
5.6 5.9 6.1 6.1 6.2 6.2 6.0 6.1 6.3 6.4 6.2 5.7 5.5 5.6 5.4 5.6 5.3 5.3 5.8 6.2 6.1 6.1 5.8 5.5 5.6 5.3 5.3 5.3 5.4 5.7 5.9 5.7 5.8 5.9 6.1 6.3 6.1 6.0 5.9 6.1 5.9 5.8 6.2 6.2 6.0
4.8 4.9 5.1 5.5 5.6 5.9 5.7 5.8 5.9 6.3 6.4 6.0 5.7 5.4 5.4 5.3 5.2 5.4 5.6 6.1 5.7 6.0 5.8 5.5 5.4 5.0 4.9 5.2 5.7 5.6 5.6 5.4 5.6 5.9 6.1 6.0 6.1 6.0 6.0 5.6 5.9 5.8 6.0 6.2 6.1
4.7 4.8 4.7 4.9 5.2 5.4 5.6 5.8 5.8 6.0 6.3 6.2 5.9 5.6 5.5 5.3 5.2 5.3 5.9 6.0 5.6 5.5 5.7 5.7 5.5 5.4 5.0 5.3 5.4 5.6 5.6 5.6 5.6 5.4 5.9 5.9 6.0 6.0 6.3 5.9 6.0 6.0 6.0 6.1 6.1
4.9 4.8 4.9 5.1 5.2 5.5 5.7 5.7 6.0 6.1 6.3 6.3 6.2 5.8 5.4 5.4 5.4 5.6 5.9 6.1 6.0 5.8 5.9 5.9 5.5 5.5 5.7 5.3 5.3 5.6 5.6 5.6 5.6 5.5 5.4 5.6 5.8 6.1 6.3 6.1 6.2 6.2 6.2 6.0 6.0
5.2 5.3 5.2 5.3 5.4 5.4 5.7 5.7 5.9 6.3 6.4 6.4 6.3 6.1 5.9 5.5 5.6 5.8 6.0 5.7 5.7 5.7 5.9 5.9 5.8 5.4 5.2 5.3 5.6 5.3 5.4 5.6 5.4 5.5 5.3 5.4 5.6 6.1 5.9 6.0 6.1 6.1 6.2 6.2 6.0
5.4 5.5 5.5 5.5 5.6 5.6 5.8 5.8 6.1 6.4 6.9 6.7 6.6 6.3 6.2 5.9 6.1 6.2 6.3 5.6 5.5 5.3 5.5 5.7 5.5 5.2 5.3 5.0 5.6 5.4 5.1 5.3 5.2 5.6 5.6 5.2 5.2 5.6 6.0 5.9 6.2 6.1 5.9 6.1 6.2
5.7 5.7 5.7 5.7 5.9 5.9 6.0 6.2 6.2 6.6 7.0 7.0 6.8 6.2 6.2 6.2 5.9 6.2 6.3 6.0 5.9 5.3 5.2 5.6 5.7 5.4 5.3 5.3 5.2 5.0 4.9 5.2 5.5 5.2 5.8 5.3 5.5 5.8 6.2 6.0 6.0 5.9 5.8 6.0 6.2
6.0 6.0 5.9 6.0 6.2 6.2 6.2 6.2 6.5 6.5 6.8 6.8 6.8 6.8 6.2 6.3 5.9 6.1 6.0 5.9 5.7 5.5 5.2 5.4 5.4 5.0 5.3 4.9 4.2 4.7 4.7 5.1 5.3 5.4 5.8 5.8 5.4 5.6 6.0 6.0 6.0 6.0 5.9 5.9 6.1
6.2 6.5 6.5 6.5 6.7 6.5 6.5 6.2 6.2 6.1 6.3 6.5 6.8 6.4 6.0 5.9 6.2 6.0 6.0 6.2 5.8 5.3 5.3 5.2 4.9 4.4 4.7 5.2 5.4 4.9 5.2 5.3 5.6 5.5 5.2 5.5 5.3 5.6 5.7 5.5 5.6 6.0 6.2 6.1 6.2
6.7 6.9 7.0 7.0 7.0 6.8 6.8 6.7 6.7 6.4 6.6 6.9 6.8 6.5 6.2 5.7 6.1 5.9 6.0 5.9 6.1 5.6 5.1 4.9 4.6 4.8 5.0 5.2 5.6 5.4 4.9 5.3 5.5 4.9 4.9 5.2 4.9 5.4 5.4 5.8 5.7 6.0 6.0 6.3 6.2
7.0 7.1 7.0 7.1 7.0 6.9 7.0 7.1 7.1 6.9 7.0 6.8 7.1 6.7 6.1 5.8 5.9 5.9 5.9 6.1 5.9 5.6 5.2 4.7 4.5 4.9 5.0 5.0 5.1 5.3 5.0 5.8 5.5 4.7 4.9 5.0 4.7 5.2 5.8 6.1 5.8 5.6 6.1 6.1 6.2
7.1 7.0 7.0 7.0 7.0 7.0 6.8 7.1 7.2 7.0 6.7 6.7 6.8 6.6 6.2 6.5 6.3 6.1 5.9 6.0 5.7 5.7 5.5 5.0 5.3 5.1 4.9 4.9 5.2 5.4 5.3 5.4 5.1 4.9 4.7 4.6 4.1 5.0 5.5 5.7 6.2 6.3 6.4 6.4 6.3
7.1 7.0 6.9 7.0 7.3 7.2 7.1 7.2 7.1 6.9 7.4 7.2 6.8 6.8 6.6 6.6 6.0 6.0 5.9 5.9 6.0 5.7 5.4 5.0 5.1 5.1 5.1 4.9 5.1 5.4 5.2 5.3 5.1 5.0 4.4 4.3 3.5 4.6 5.3 5.5 6.4 7.3 7.1 7.0 6.7
7.1 7.0 6.9 6.9 7.2 7.3 7.2 7.3 7.2 7.3 7.7 7.2 6.9 6.5 6.6 6.3 6.1 6.2 6.1 5.7 5.9 5.9 5.5 5.6 5.2 5.3 5.1 5.2 5.2 5.0 5.4 5.3 5.1 4.8 4.3 4.3 3.8 4.4 5.1 6.3 7.0 7.2 6.9 7.0 7.1
7.0 7.0 7.1 7.2 7.3 7.2 7.2 7.4 7.1 7.4 7.4 7.1 6.9 6.8 6.5 6.1 5.8 6.1 5.9 5.9 5.9 5.9 6.2 6.1 5.5 5.1 5.3 5.3 5.5 5.2 5.4 4.9 5.1 4.9 4.5 5.3 4.2 3.9 5.0 6.0 6.0 6.2 6.9 7.0 6.9
7.0 6.9 7.0 7.1 7.2 7.2 7.2 7.1 7.3 7.4 6.7 6.8 6.6 6.9 6.8 6.4 6.1 6.1 6.2 5.8 5.9 5.8 5.7 5.9 5.7 5.2 5.2 5.5 5.1 4.9 5.3 6.0 5.6 5.8 6.2 5.3 4.3 4.4 5.7 6.8 6.9 7.0 7.3 7.3 7.3
6.9 6.9 7.0 7.1 7.2 7.2 7.1 7.4 7.2 7.4 7.3 6.8 6.9 6.6 6.8 6.9 6.5 6.3 6.3 6.1 6.1 6.2 6.4 6.2 6.0 5.2 5.4 5.3 5.1 4.9 5.2 5.8 5.2 4.9 5.1 5.5 5.0 5.0 6.0 6.6 6.8 7.0 7.3 6.9 7.2
7.0 6.8 6.8 6.9 7.1 7.0 6.9 6.9 7.3 7.3 7.1 6.8 6.9 6.8 6.5 6.5 6.6 6.3 5.9 6.0 6.1 6.4 6.8 6.4 5.8 5.5 5.2 4.9 5.0 5.2 5.3 5.2 5.4 5.3 5.6 6.4 5.9 5.6 6.0 6.1 6.4 6.8 6.7 6.9 6.8
6.9 6.8 7.1 6.9 7.0 6.9 6.9 6.7 7.1 7.0 6.7 6.5 6.3 6.2 6.2 6.0 6.3 6.2 6.2 5.8 5.7 6.3 6.3 6.2 6.4 5.2 5.5 5.2 4.7 4.8 4.8 5.3 5.4 5.8 6.2 6.2 6.9 6.3 6.1 6.6 6.5 6.8 6.8 6.8 6.8
7.0 6.7 7.2 7.2 7.2 7.1 6.7 7.0 6.7 7.1 6.8 5.8 6.0 6.3 6.1 6.4 7.0 6.0 5.8 6.0 5.5 6.0 5.8 6.1 6.4 5.7 5.3 4.9 5.0 5.2 5.1 5.7 5.4 5.0 4.9 5.2 5.5 6.4 6.2 6.6 6.3 6.3 6.6 6.7 6.6
6.9 6.8 7.2 7.2 7.0 7.1 7.1 6.9 6.6 7.5 7.1 5.5 5.1 6.1 6.3 5.9 6.6 6.3 5.9 6.2 5.9 5.8 6.0 5.8 5.7 5.2 5.2 5.4 5.3 4.9 5.1 5.7 6.0 6.0 5.2 5.6 5.5 6.2 6.4 6.6 6.7 6.7 6.7 6.9 6.7
7.0 6.9 6.9 6.9 7.2 7.2 6.8 6.5 6.3 6.9 6.6 5.8 5.2 6.1 6.6 6.4 6.3 6.3 6.1 6.1 5.7 6.2 6.5 6.4 6.0 6.0 5.7 5.0 5.0 4.8 4.9 5.3 5.7 5.6 5.6 5.5 6.1 6.2 6.1 7.0 7.2 7.2 6.4 6.5 6.5
7.3 7.4 7.3 6.4 7.2 6.8 6.3 6.3 6.4 6.3 6.1 5.5 5.7 5.7 6.7 6.7 6.2 6.2 5.9 6.0 5.8 6.2 6.0 6.2 6.6 6.4 6.8 6.8 6.5 6.7 6.3 6.5 6.3 7.1 6.5 6.8 6.4 6.8 6.8 6.3 5.8 6.0 6.8 6.8 6.4
7.5 7.7 7.5 7.1 7.2 6.4 6.3 6.4 6.9 6.5 5.8 5.3 5.3 5.5 6.3 6.9 6.8 6.0 5.6 6.1 5.6 5.7 5.9 5.8 6.2 6.5 6.3 6.5 6.7 6.8 6.8 6.6 6.6 6.6 5.9 6.5 6.2 6.5 6.6 6.0 6.2 6.2 6.2 6.2 6.5
7.5 7.5 7.5 7.5 7.2 6.5 6.9 6.7 6.8 6.0 5.9 5.7 5.4 5.7 6.3 6.3 6.6 6.2 6.1 5.7 6.0 6.2 5.3 5.7 5.8 6.2 5.8 6.2 6.0 6.0 6.6 6.7 7.3 6.9 7.1 5.9 7.8 7.3 5.7 5.9 6.0 6.0 6.3 6.4 6.3
Wind_Speed
21 20 21 20 16 17 19 18 19 20 20 20 19 18 19 19 13 6 10 2 1 7 7 5 3 5 2 6 4 3 6 9 14 9 2 6 8 3 4 3 6 5 2 5 19
21 20 20 20 17 17 19 19 20 20 20 21 19 18 19 22 9 13 7 2 7 9 5 8 6 7 6 5 5 6 10 12 4 3 0 6 8 7 5 7 7 7 4 14 17
22 20 20 19 18 18 19 20 21 20 20 21 20 18 20 18 6 9 21 12 11 10 11 7 6 3 11 5 7 12 14 5 1 2 2 1 7 4 7 8 9 10 12 16 15
24 22 20 19 19 20 20 19 20 21 20 22 21 19 25 14 9 6 18 23 15 13 9 10 9 7 3 11 14 11 14 5 4 1 2 2 2 6 12 4 6 5 16 17 18
25 23 21 21 19 20 21 20 18 17 19 21 23 20 17 10 13 5 10 27 18 15 15 14 15 10 10 10 15 16 10 6 6 9 7 1 3 6 9 11 1 4 14 17 16
25 24 21 19 19 22 20 21 17 17 18 20 23 25 18 19 8 9 9 16 17 17 15 16 11 13 10 7 15 12 13 10 10 7 4 6 3 3 2 5 6 10 13 14 17
25 23 21 19 19 23 22 20 17 14 18 20 23 14 17 21 12 14 12 15 19 18 15 15 8 13 5 8 9 12 19 13 11 15 10 5 16 8 2 1 8 10 12 13 16
24 22 20 17 17 21 22 21 20 17 13 11 24 11 6 17 10 13 13 11 16 14 14 14 7 6 1 2 6 10 11 18 17 11 8 14 21 13 7 5 9 11 11 13 16
24 21 19 17 16 21 22 21 21 18 14 9 3 8 16 0 19 16 16 17 15 13 8 5 10 4 2 5 9 14 12 21 18 12 13 17 17 19 3 3 7 10 11 12 13
23 21 19 16 16 20 21 19 14 10 9 8 3 4 4 25 15 20 15 15 16 16 8 8 7 10 6 11 14 16 19 7 17 13 7 16 19 16 12 10 9 9 11 12 13
23 21 19 17 17 20 15 7 6 6 8 9 10 6 2 12 18 19 19 19 14 20 12 10 11 21 21 16 13 11 15 20 11 2 10 17 18 21 23 23 19 13 12 13 14
23 23 22 19 19 20 15 9 15 3 9 19 19 16 9 9 12 23 20 15 11 13 22 8 20 22 17 20 18 7 17 19 5 6 6 14 21 19 23 24 22 21 17 15 13
24 24 23 20 18 13 16 19 10 4 5 13 26 25 15 11 15 24 28 11 20 21 27 24 16 21 19 18 21 20 17 16 8 7 5 7 20 21 23 25 23 21 22 18 15
26 25 23 21 10 12 15 17 4 1 5 9 11 13 6 14 8 26 28 17 12 25 26 22 19 27 20 21 19 21 9 14 9 8 5 6 8 17 18 22 22 23 22 22 19
27 27 26 25 10 15 10 10 8 3 8 8 15 9 18 11 12 19 24 5 13 21 14 13 21 22 24 23 19 4 9 6 3 2 1 7 5 8 13 18 19 18 23 24 20
29 27 27 6 7 15 10 14 8 7 10 8 9 17 22 26 11 14 9 4 9 20 18 10 4 16 18 15 15 16 10 11 6 1 7 15 10 10 13 19 15 15 17 21 21
28 26 18 8 8 10 13 10 8 8 3 5 9 21 21 16 22 16 7 16 11 12 13 9 11 3 8 19 16 13 12 3 6 5 6 2 11 16 16 15 12 13 14 15 18
27 24 13 6 13 13 9 5 14 10 16 1 4 24 24 14 22 29 22 17 11 20 18 14 6 15 10 17 10 15 18 7 8 10 8 3 10 4 8 13 12 16 13 11 10
27 8 6 8 13 9 7 7 13 7 3 6 6 19 11 17 8 22 22 23 15 19 12 15 6 4 12 9 16 4 9 2 2 1 2 7 9 8 12 11 14 13 11 14 13
9 6 8 13 10 8 7 15 6 6 2 4 17 18 17 18 14 19 19 21 20 24 13 15 7 1 2 6 1 14 10 2 2 5 7 8 11 7 6 8 8 5 9 8 8
10 7 9 15 6 6 10 10 17 11 5 3 10 7 14 12 15 24 24 16 27 27 15 19 9 2 8 8 9 8 7 6 3 6 4 4 5 4 6 5 1 3 3 4 5
5 5 11 11 7 6 11 15 12 11 8 7 5 11 11 29 19 16 21 18 28 25 24 7 7 7 3 2 10 12 11 14 6 7 5 5 8 5 7 5 6 4 5 4 4
5 3 6 9 8 11 12 21 13 9 8 7 5 18 13 16 14 17 19 11 25 23 21 10 7 7 4 2 0 9 17 17 10 2 13 6 8 5 7 3 3 2 3 6 4
6 5 3 6 7 16 17 12 15 11 11 6 7 22 16 17 10 16 16 14 24 22 13 9 10 14 16 19 10 9 16 18 17 6 13 17 17 9 7 5 4 4 4 10 11
1 4 4 11 13 14 17 11 12 7 10 10 5 17 13 7 7 10 14 11 13 13 9 6 5 7 2 12 18 18 22 20 22 29 14 24 24 16 14 13 13 11 12 11 11
4 4 2 0 11 19 13 14 15 14 10 6 14 15 22 17 15 27 26 20 18 8 13 4 4 7 2 10 14 16 20 23 27 29 22 26 24 10 12 9 6 9 11 14 12
2 1 3 6 10 12 16 13 15 7 9 13 17 17 23 15 6 16 6 7 18 22 16 13 7 3 5 10 8 2 24 26 25 24 28 20 31 9 8 8 10 11 12 11 10
Wind_Direction
229 229 224 235 239 235 226 222 211 196 200 198 196 186 168 148 132 161 208 323 251 159 145 106 230 243 303 252 247 279 232 226 229 222 231 147 186 180 21 141 204 172 335 87 142
232 231 229 226 228 232 224 219 210 200 196 197 193 189 166 153 186 221 198 174 276 207 180 171 185 226 211 243 211 229 220 229 355 352 356 170 220 167 199 191 202 183 122 125 149
229 231 229 233 225 227 219 214 204 197 192 192 193 188 164 168 233 238 210 190 231 234 239 209 165 235 234 200 227 218 230 217 98 277 350 166 215 195 228 219 227 206 171 155 165
224 223 223 228 230 221 212 210 197 191 192 193 191 188 154 180 225 206 201 187 190 222 224 194 182 152 270 224 216 242 233 229 147 120 131 134 9 230 234 214 6 230 167 166 178
217 214 216 218 224 218 206 205 192 192 193 194 191 177 166 211 217 117 188 183 184 207 212 201 189 186 194 221 227 221 189 205 162 120 55 28 247 270 266 249 270 163 160 177 185
209 207 211 216 223 213 201 198 193 193 189 194 196 174 197 225 217 209 155 177 198 202 208 211 211 202 203 227 221 213 219 191 188 181 86 346 330 283 85 244 213 176 181 185 188
204 203 206 212 214 203 195 188 187 189 188 189 194 186 218 216 182 189 169 186 193 201 207 219 217 202 214 205 231 247 213 208 225 217 207 265 285 236 356 247 229 211 194 190 194
200 201 203 206 207 197 190 181 170 180 172 198 193 195 240 196 182 184 168 166 187 208 228 210 233 194 278 118 186 208 237 222 215 205 201 198 237 244 360 272 254 229 219 197 199
194 197 199 204 194 187 186 181 178 175 178 139 160 211 233 173 199 184 187 172 176 181 195 201 211 166 178 194 186 209 221 223 225 207 215 210 240 240 217 266 271 270 227 213 206
191 192 193 198 186 173 173 168 169 171 188 188 248 234 218 200 185 182 184 173 162 164 161 196 210 194 179 201 201 200 214 221 222 187 231 218 234 248 231 243 274 274 260 231 222
187 188 187 182 171 165 157 142 164 197 205 194 190 223 148 204 163 187 182 174 171 170 183 194 199 207 197 204 226 211 210 214 216 211 214 236 249 250 249 252 252 248 257 252 233
183 181 176 164 162 163 175 190 191 117 209 221 240 220 186 172 181 179 170 171 180 180 186 175 218 205 207 192 210 208 218 212 242 96 220 240 246 244 250 250 247 248 248 249 239
174 172 163 156 157 166 188 197 181 197 225 206 216 224 200 197 185 177 170 170 183 181 192 204 208 211 210 199 205 211 223 216 195 167 229 275 264 256 253 257 254 247 248 244 253
170 163 157 148 154 176 199 203 200 181 249 226 201 222 196 198 233 179 178 178 196 189 193 215 211 194 205 207 204 212 207 230 132 166 229 183 283 257 249 245 240 238 237 234 231
164 157 152 163 164 184 169 175 185 134 221 196 185 172 175 203 138 194 172 144 183 173 168 186 197 194 197 203 199 212 161 172 130 207 325 200 252 271 237 246 242 240 226 223 222
161 154 154 155 160 173 147 148 152 199 231 168 160 176 180 189 190 148 177 134 187 167 193 163 253 183 202 190 181 132 102 71 55 49 248 231 216 245 246 248 248 251 245 222 217
158 154 160 146 146 141 141 145 192 213 106 221 200 169 195 177 181 186 179 167 171 157 163 150 166 127 213 182 144 142 151 125 204 217 237 82 216 249 293 267 291 277 252 241 223
153 149 151 148 143 139 154 142 211 223 222 223 252 184 182 171 190 185 178 174 177 176 159 166 175 175 186 175 176 174 185 194 217 222 254 144 239 242 244 266 273 255 254 271 237
143 148 154 152 151 163 156 203 209 196 227 208 245 182 174 172 170 178 181 178 171 182 163 170 130 93 169 154 158 180 205 216 112 132 269 212 241 249 246 263 263 249 253 246 241
140 137 152 153 142 163 179 215 203 218 155 342 211 194 174 172 172 181 177 184 174 189 183 177 121 11 131 89 115 188 142 113 237 207 241 236 237 245 260 257 301 289 260 261 273
128 139 157 154 155 173 201 220 223 209 132 244 243 227 189 170 164 185 188 178 179 190 171 167 134 177 151 201 164 153 183 207 199 242 259 272 241 145 188 29 311 352 7 17 346
123 156 160 149 165 195 216 206 218 222 182 227 306 243 211 185 167 185 179 184 182 179 171 138 129 145 161 339 199 211 189 197 205 196 244 323 251 168 152 103 103 62 76 39 20
116 128 165 179 186 199 221 215 223 210 204 194 268 233 197 175 178 198 181 179 168 170 165 164 141 120 115 27 19 198 202 203 205 33 217 215 254 230 184 232 160 129 22 0 37
146 135 148 210 240 209 202 215 209 210 222 171 270 300 190 191 167 176 150 178 170 180 137 145 167 182 191 188 129 184 193 202 208 206 221 224 240 164 152 158 196 247 323 326 329
155 146 156 189 211 213 191 207 202 205 204 166 256 232 214 160 162 160 131 136 168 176 149 160 141 189 201 180 169 184 185 185 202 224 206 239 241 238 267 281 293 297 316 314 301
135 150 153 174 201 210 211 210 198 219 178 184 228 269 203 175 186 172 154 162 169 178 171 226 125 122 57 155 181 190 192 199 213 228 232 252 266 272 267 262 260 274 283 285 287
86 159 199 169 190 199 216 196 201 181 216 226 212 249 211 182 206 157 118 124 172 166 169 174 139 124 142 153 133 241 210 201 215 219 220 233 240 269 278 278 271 276 276 270 292